Snowfall_Accumulation
0.2 1.1 3.4 0.5 0.7 0.9 1.3 1.6 1.4 0.6 0.1 0.3 0.3 0.1 0.0 0.0 0.0 0.0 0.0 0.0 0.0 0.0 0.0 0.0 0.0 0.0 0.0 0.0 0.0 0.0 0.0 0.0 0.0 0.0 0.0 0.0 0.0 0.0 0.0 0.0 0.0 0.0 0.0 0.0
1.6 2.8 0.1 0.0 0.1 1.0 1.3 1.8 1.1 0.5 0.1 0.5 0.5 0.1 0.0 0.0 0.0 0.0 0.0 0.0 0.0 0.0 0.0 0.0 0.0 0.0 0.0 0.0 0.0 0.0 0.0 0.0 0.0 0.0 0.0 0.0 0.0 0.0 0.0 0.0 0.0 0.0 0.0 0.0
4.0 1.2 0.0 0.1 1.0 1.8 1.4 1.5 1.1 1.3 0.5 0.1 0.5 0.9 0.2 0.0 0.0 0.0 0.0 0.0 0.0 0.0 0.0 0.0 0.0 0.0 0.0 0.0 0.0 0.0 0.0 0.0 0.0 0.0 0.0 0.0 0.0 0.0 0.0 0.0 0.0 0.0 0.0 0.0
1.6 0.2 0.0 0.6 1.0 1.5 2.2 0.3 0.6 0.9 1.5 2.1 2.4 5.3 1.3 0.5 0.0 0.0 0.1 0.0 0.0 0.0 0.0 0.0 0.0 0.0 0.0 0.0 0.0 0.0 0.0 0.0 0.0 0.0 0.0 0.0 0.0 0.0 0.0 0.0 0.0 0.0 0.0 0.0
2.2 0.2 0.3 1.2 0.7 0.6 1.1 0.2 0.3 0.7 2.1 3.7 1.3 4.1 3.1 0.5 0.6 0.1 0.1 0.1 0.0 0.0 0.0 0.0 0.0 0.0 0.0 0.0 0.0 0.0 0.0 0.0 0.0 0.0 0.0 0.0 0.0 0.0 0.0 0.0 0.0 0.0 0.0 0.0
0.6 0.1 0.0 0.3 0.0 0.1 0.2 0.1 0.3 0.6 2.9 6.9 1.9 3.3 3.7 1.8 1.4 0.9 0.6 0.1 0.1 0.0 0.0 0.0 0.0 0.0 0.0 0.0 0.0 0.0 0.0 0.0 0.0 0.0 0.0 0.0 0.0 0.0 0.0 0.0 0.0 0.0 0.0 0.0
7.8 1.1 0.1 0.1 0.8 0.7 0.9 5.3 11.7 11.7 10.7 5.0 1.2 2.1 2.9 0.7 0.5 0.4 0.4 0.2 0.2 0.1 0.0 0.0 0.0 0.0 0.0 0.0 0.0 0.0 0.0 0.0 0.0 0.0 0.0 0.0 0.0 0.0 0.0 0.0 0.0 0.0 0.0 0.0
10.8 9.5 0.6 0.1 0.3 1.3 1.1 3.3 7.7 7.9 4.9 1.8 1.0 1.8 1.7 0.1 0.1 0.1 0.1 0.1 0.1 0.1 0.1 0.0 0.0 0.0 0.0 0.0 0.0 0.0 0.0 0.0 0.0 0.0 0.0 0.0 0.0 0.0 0.0 0.0 0.0 0.0 0.0 0.0
6.9 7.2 0.3 0.0 0.0 0.3 2.8 3.4 2.4 6.4 4.6 2.9 1.7 1.5 0.6 0.1 0.1 0.1 0.0 0.0 0.0 0.1 0.1 0.1 0.0 0.0 0.0 0.0 0.0 0.0 0.0 0.0 0.0 0.0 0.0 0.0 0.0 0.0 0.0 0.0 0.0 0.0 0.0 0.0
3.3 7.3 1.3 0.0 0.1 0.0 0.3 1.1 5.3 10.5 8.3 4.5 1.9 1.3 1.9 0.9 0.5 0.6 0.4 0.0 0.0 0.0 0.0 0.0 0.0 0.0 0.0 0.0 0.0 0.0 0.0 0.0 0.0 0.0 0.0 0.0 0.0 0.0 0.0 0.0 0.0 0.0 0.0 0.0
0.9 6.4 4.7 2.0 3.2 2.8 2.4 3.9 6.3 7.7 6.5 5.6 3.0 1.8 1.3 0.8 0.8 0.8 0.5 0.1 0.0 0.0 0.0 0.0 0.0 0.0 0.0 0.0 0.0 0.0 0.0 0.0 0.0 0.0 0.0 0.0 0.0 0.0 0.0 0.0 0.0 0.0 0.0 0.0
0.8 4.5 6.7 2.6 0.1 0.1 1.2 2.8 4.6 8.0 5.6 4.5 3.6 2.2 0.1 0.1 0.4 0.3 0.1 0.0 0.0 0.0 0.0 0.0 0.0 0.0 0.0 0.0 0.0 0.0 0.0 0.0 0.0 0.0 0.0 0.0 0.0 0.0 0.0 0.0 0.0 0.0 0.0 0.0
0.7 5.3 8.5 3.7 1.4 0.4 3.1 1.8 1.8 4.5 7.5 6.3 4.8 2.5 0.0 0.0 0.2 0.1 0.2 0.1 0.1 0.1 0.0 0.0 0.0 0.0 0.0 0.0 0.0 0.0 0.0 0.0 0.0 0.0 0.0 0.0 0.0 0.0 0.0 0.0 0.0 0.0 0.0 0.0
0.3 5.1 5.9 5.3 4.2 4.0 4.2 2.4 2.2 6.3 11.2 5.7 2.9 2.1 1.0 0.5 0.3 0.2 0.2 0.1 0.1 0.0 0.0 0.0 0.0 0.0 0.0 0.0 0.0 0.0 0.0 0.0 0.0 0.0 0.0 0.0 0.0 0.0 0.0 0.0 0.0 0.0 0.0 0.0
0.2 6.8 5.4 3.1 1.3 2.7 3.3 2.8 2.8 5.3 5.1 5.7 2.5 1.6 0.9 0.7 0.1 0.1 0.0 0.0 0.0 0.0 0.0 0.0 0.0 0.0 0.0 0.0 0.0 0.0 0.0 0.0 0.0 0.0 0.0 0.0 0.0 0.0 0.0 0.0 0.0 0.0 0.0 0.0
0.3 4.3 4.7 3.4 1.3 2.0 3.1 1.5 1.2 1.7 1.3 2.1 2.1 1.7 0.0 0.0 0.0 0.0 0.0 0.0 0.0 0.0 0.0 0.0 0.0 0.0 0.0 0.0 0.0 0.0 0.0 0.0 0.0 0.0 0.0 0.0 0.0 0.0 0.0 0.0 0.0 0.0 0.0 0.0
0.3 2.5 6.1 5.0 1.8 2.7 5.1 0.7 0.7 0.8 0.6 1.0 1.7 0.6 0.1 0.1 0.1 0.1 0.0 0.0 0.0 0.0 0.0 0.0 0.0 0.0 0.0 0.0 0.0 0.0 0.0 0.0 0.0 0.0 0.0 0.0 0.0 0.0 0.0 0.0 0.0 0.0 0.2 0.1
0.2 1.1 4.7 4.5 3.9 5.5 1.3 0.3 0.3 0.5 0.7 0.5 0.4 0.2 0.1 0.1 0.1 0.0 0.0 0.0 0.0 0.0 0.0 0.0 0.0 0.0 0.0 0.0 0.0 0.0 0.0 0.0 0.0 0.0 0.0 0.0 0.0 0.0 0.1 0.1 0.1 0.1 0.4 0.5
0.1 0.4 4.0 3.9 3.2 2.3 0.2 0.2 0.3 0.6 0.9 0.3 0.4 0.1 0.1 0.1 0.1 0.0 0.0 0.0 0.0 0.0 0.0 0.0 0.0 0.0 0.0 0.0 0.0 0.0 0.0 0.0 0.0 0.0 0.0 0.0 0.0 0.1 0.1 0.3 0.4 0.5 0.8 1.4
0.0 0.1 2.2 3.2 3.0 1.8 0.6 0.0 0.0 0.0 1.0 0.1 0.1 0.1 0.1 0.1 0.4 0.3 0.0 0.0 0.0 0.0 0.0 0.0 0.0 0.0 0.0 0.0 0.0 0.0 0.0 0.0 0.0 0.1 0.4 0.0 0.2 0.5 0.5 0.9 1.1 1.3 1.6 2.1
0.7 1.2 2.4 2.3 2.4 0.9 0.2 0.0 0.0 0.5 1.9 0.1 0.0 0.0 0.1 0.1 0.2 0.1 0.0 0.0 0.0 0.0 0.0 0.0 0.0 0.0 0.0 0.0 0.0 0.1 0.2 0.6 1.2 0.5 0.7 0.7 0.4 0.8 1.2 1.1 1.1 1.0 1.1 1.1
0.6 0.9 1.0 1.1 1.8 1.0 0.0 0.0 0.2 0.1 0.1 0.0 0.0 0.0 0.0 0.0 0.0 0.0 0.0 0.0 0.0 0.0 0.0 0.0 0.0 0.1 0.7 0.3 0.6 0.7 1.4 1.9 1.4 1.2 1.8 1.8 1.5 1.1 0.8 1.1 1.0 1.0 0.9 0.7
0.4 0.5 0.7 0.9 0.9 0.1 0.1 0.1 0.0 0.0 0.0 0.0 0.0 0.0 0.0 0.0 0.0 0.0 0.0 0.0 0.0 0.0 0.0 0.0 0.0 0.1 0.3 0.5 0.5 0.5 1.3 1.3 1.3 1.5 1.7 1.5 0.9 0.7 0.7 0.8 0.5 0.4 0.2 0.2
0.3 0.2 0.2 0.4 0.3 0.1 0.1 0.0 0.0 0.0 0.0 0.0 0.0 0.0 0.0 0.0 0.0 0.0 0.0 0.0 0.0 0.0 0.0 0.0 0.1 0.1 0.1 0.3 0.4 0.6 0.5 0.5 0.4 0.7 0.6 0.5 0.3 0.3 0.2 0.1 0.1 0.2 0.2 0.1
0.3 0.2 0.3 0.2 0.1 0.0 0.0 0.1 0.0 0.0 0.0 0.0 0.0 0.0 0.0 0.0 0.0 0.0 0.0 0.0 0.0 0.1 0.0 0.1 0.1 0.1 0.1 0.1 0.3 0.3 0.2 0.1 0.2 0.2 0.1 0.1 0.1 0.1 0.1 0.1 0.1 0.1 0.1 0.2
0.1 0.2 0.3 0.3 0.1 0.1 0.0 0.0 0.0 0.0 0.0 0.0 0.0 0.0 0.0 0.0 0.0 0.0 0.0 0.0 0.0 0.0 0.1 0.1 0.1 0.2 0.1 0.1 0.2 0.2 0.2 0.1 0.1 0.1 0.2 0.2 0.1 0.2 0.1 0.1 0.1 0.1 0.1 0.1